Location: Canet
(43.3261°N, 5.3723°E)
Time: 17:57:17
(UTC+00:00)

H-2A R/B - Pass Details

Date: 24 January 2021
Orbit: 576 x 655 km, 98.5° (Epoch: 02 March)

Event Time Altitude Azimuth Distance (km) Brightness Sun altitude
Rises 17:57:21 0° 3° (N) 2,959 5.4 -14.1°
Reaches altitude 10° 17:59:48 10° 352° (N) 2,034 4.7 -14.5°
Maximum altitude 18:03:35 29° 293° (WNW) 1,170 4.1 -15.2°
Drops below altitude 10° 18:07:17 10° 234° (SW) 1,980 5.7 -15.9°
Sets 18:09:39 0° 223° (SW) 2,867 6.4 -16.3°
